Regional Weather Roundup
Issued by NWS

Home | Current Version | Previous Version | Graphics & Text | Print | Product List | Glossary On
Versions: 1 2 3 4 5 6 7 8 9 10 11 12 13 14 15 16 17 18 19 20 21 22 23 24 25 26 27 28 29 30 31 32 33 34 35 36 37 38 39 40 41 42 43 44 45 46 47 48 49 50
000
ASUS44 KMEG 210510
RWRTN
TENNESSEE HOURLY STATE WEATHER ROUNDUP
NATIONAL WEATHER SERVICE MEMPHIS TN
1200 AM CDT THU SEP 21 2017

TNZ002-004-019-021-049-052-054-088>092-210600-
WEST TENNESSEE

CITY           SKY/WX    TMP DP  RH WIND       PRES   REMARKS
MEMPHIS INTL   CLEAR     79  73  82 S7        29.98F
NWS MEMPHIS      N/A     77 N/A N/A MISG        N/A
JACKSON        CLEAR     74  72  93 CALM      30.01R
DYERSBURG      CLEAR     76  73  91 CALM      30.00R
SOMERVILLE     CLEAR     75  72  88 CALM      29.99S
COVINGTON      CLEAR     75  72  88 CALM      29.99R
BOLIVAR        CLEAR     73  72  94 CALM      30.00S
PARIS          CLEAR     70  70 100 CALM      30.00S
HUNTINGDON     CLEAR     73  72  94 CALM      30.00S
LEXINGTON      CLEAR     72  72 100 CALM      30.01S FOG
SELMER         CLEAR     77  72  83 CALM      30.01S
SAVANNAH       CLEAR     73  72  94 CALM      30.01S
$$

TNZ008-025-027-028-033-062-065-066-210600-
NORTH MIDDLE TENNESSEE

CITY           SKY/WX    TMP DP  RH WIND       PRES   REMARKS
NASHVILLE      CLEAR     74  70  87 S3        30.04S
PORTLAND       CLEAR     72  70  94 CALM      30.03S
CLARKSVILLE    CLEAR     72  69  90 CALM      30.02R
SMYRNA           N/A    N/A N/A N/A MISG        N/A
COOKEVILLE     FOG       64  64 100 CALM      30.06S VSB 1/2
GALLATIN       CLEAR     72  70  94 CALM      30.05F
CROSSVILLE     CLEAR     64  62  93 W3        30.12S
$$

TNZ061-075-076-078-094-096-097-210600-
SOUTH MIDDLE TENNESSEE

CITY           SKY/WX    TMP DP  RH WIND       PRES   REMARKS
TULLAHOMA      PTCLDY    70  66  88 CALM      30.07F
WINCHESTER     CLEAR     70  66  88 CALM        N/A
MCMINNVILLE    CLEAR     68  68 100 CALM      30.07S
COLUMBIA       CLEAR     72  72 100 CALM      30.01F
SHELBYVILLE    PTCLDY    70  70 100 CALM      30.04F
$$

TNZ017-018-042-046-047-210600-
NORTHEAST TENNESSEE

CITY           SKY/WX    TMP DP  RH WIND       PRES   REMARKS
TRI CITIES     CLEAR     62  61  96 CALM      30.10S
ELIZABETHTON   MOCLDY    63  61  94 CALM      30.11S
$$

TNZ012-013-036-069-073-074-210600-
CENTRAL EAST TENNESSEE

CITY           SKY/WX    TMP DP  RH WIND       PRES   REMARKS
KNOXVILLE      CLEAR     69  66  90 CALM      30.06S
OAK RIDGE      CLEAR     67  65  93 CALM      30.07F
DOWNTOWN KNOXV FOG       68  68 100 CALM      30.05F VSB 3/4
GATLINBURG     CLEAR     64  63  94 CALM      30.07S
MORRISTOWN     CLEAR     68  64  88 CALM      30.07S
JACKSBORO      CLEAR     66  64  94 CALM      30.10F FOG
$$

TNZ083-085-099-210600-
SOUTHEAST TENNESSEE

CITY           SKY/WX    TMP DP  RH WIND       PRES   REMARKS
CHATTANOOGA    CLEAR     72  69  90 CALM      30.05F
DAYTON         CLEAR     68  68 100 CALM      30.05S
$$

SKY/WX REPORTED AS FAIR MEANS FEW OR NO CLOUDS BELOW
12 THOUSAND FEET.





USA.gov is the U.S. government's official web portal to all federal, state and local government web resources and services.